This is the latest recevied weather packets stored in our database for station/object ENBN. If no packets are shown the sender has not sent any weather packets the latest 10 day(s).
| Time | Temp. | Humidity | Pressure | Rain* | Wind** | Luminosity | Snow |
|---|---|---|---|---|---|---|---|
| 1787929388 | 22.78° C | 46% | 1013 hPa | - | - | - | - |
| 1787927588 | 23.89° C | 46% | 1013 hPa | - | - | - | - |
| 1787923987 | 21.67° C | 49% | 1014 hPa | - | - | - | - |
| 1787922188 | 23.89° C | 46% | 1014 hPa | - | - | - | - |
| 1787920387 | 25° C | 41% | 1014 hPa | - | - | - | - |
| 1787918587 | 21.67° C | 53% | 1015 hPa | - | - | - | - |
| 1787916787 | 23.89° C | 46% | 1015 hPa | - | - | - | - |
| 1787914987 | 22.78° C | 49% | 1015 hPa | - | - | - | - |
| 1787913187 | 22.78° C | 53% | 1015 hPa | - | - | - | - |
| 1787911387 | 21.67° C | 56% | 1016 hPa | - | - | - | - |
| 1787909588 | 20.56° C | 60% | 1016 hPa | - | - | - | - |
| 1787907789 | 18.89° C | 68% | 1016 hPa | - | - | - | - |
| 1787905987 | 20° C | 64% | 1016 hPa | - | - | - | - |
| 1787904187 | 17.78° C | 77% | 1017 hPa | - | - | - | - |
| 1787902391 | 16.67° C | 77% | 1017 hPa | - | - | - | - |
| 1787900587 | 16.67° C | 77% | 1017 hPa | - | - | - | - |
| 1787898787 | 16.67° C | 77% | 1017 hPa | - | - | - | - |
| 1787896987 | 15.56° C | 87% | 1017 hPa | - | - | - | - |
| 1787895187 | 15.56° C | 82% | 1017 hPa | - | - | - | - |
| 1787893388 | 13.89° C | 93% | 1017 hPa | - | - | - | - |
| 1787891588 | 13.89° C | 93% | 1018 hPa | - | - | - | - |
| 1787889787 | 13.89° C | 93% | 1018 hPa | - | - | - | - |
| 1787887987 | 13.89° C | 93% | 1018 hPa | - | - | - | - |
| 1787886187 | 15° C | 87% | 1018 hPa | - | - | - | - |
| 1787884387 | 15° C | 87% | 1018 hPa | - | - | - | - |
* Rain since midnight (hover to see other rain measurements)
** Current wind speed in m/s (hover to see current wind gust speed)